Simultaneous Nadir Overpasses (SNOs) Predictions

Prediction of SNOs between AURA and NPP Satellite Orbit:

Table of predicted SNOs for the next 14.0 days since TLE Epoch: 12/12/2015
Index Date (AURA) Time (AURA) Lat,Lon (AURA) SZA (AURA ) Date (NPP) Time (NPP) Lat,Lon (NPP) SZA (NPP ) Distance(km) Time Diff (sec)
1 12/13/2015 17:29:46 -78.98, -8.93 64.43 12/13/2015 17:28:54 -78.97, -9.04 64.36 2.41 52
2 12/13/2015 18:19:02 79.37, 161.17 115.07 12/13/2015 18:19:27 79.37, 161.14 115.06 0.79 25
3 12/16/2015 09:46:11 -79.18, 108.14 64.48 12/16/2015 09:45:41 -79.18, 108.16 64.46 0.37 30
4 12/16/2015 10:35:28 79.52, -81.95 115.07 12/16/2015 10:36:15 79.52, -81.83 115.01 2.45 47
5 12/19/2015 02:02:40 -79.23,-135.61 64.40 12/19/2015 02:02:33 -79.23,-135.66 64.39 0.94 7
6 12/19/2015 02:51:57 79.57, 34.31 115.15 12/19/2015 02:53:07 79.58, 34.38 115.08 1.58 70
7 12/21/2015 17:29:49 78.99, 171.09 116.03 12/21/2015 17:28:48 78.98, 171.02 116.09 1.71 61
8 12/21/2015 18:19:07 -79.35, -18.96 64.46 12/21/2015 18:19:23 -79.35, -18.96 64.48 0.13 16
9 12/24/2015 09:46:13 79.21, -71.67 115.78 12/24/2015 09:45:35 79.21, -71.58 115.79 1.81 38




NCC Satellite Simultaneous Nadir Overpasses (SNOs) Prediction Service
